Powrót do katalogu

SL-8 R/B

AktywnyPO
NORAD 13003·ROCKET BODY·🇷🇺 Russia

Wystrzelony Dec 17, 1981 z Plesetsk Cosmodrome

Loading…

Następne Przeloty (najbliższe 24 godziny)

TLE

ŚwieżeSource: Space-Track

Epoka: Sep 14, 2026, 18:37 UTC

1 13003U 81120G   26257.77624991 -.00000058  00000-0 -91058-3 0  9997
2 13003  82.9481 263.2785 0082395  14.4717 158.5775 11.91543301946088

Śledź SL-8 R/B w czasie rzeczywistym z AllMySat

Download on the App Store